Regional Weather Roundup
Issued by NWS Midland/Odessa, TX

Skip options and go directly to product.
Home | Oldest Version | Previous Version | Current Version | All | Text Only | Save Text | Print | Product List | Glossary On

Skip product version selection by date and time.   
687
ASUS44 KMAF 250910
RWRMAF
MIDLAND AREA WEATHER ROUNDUP
NATIONAL WEATHER SERVICE MIDLAND TX
400 AM CDT THU AUG 25 2016

...IN SOUTHWEST TEXAS AND SOUTHEAST NEW MEXICO...

CITY           SKY/WX    TMP DP  RH WIND       PRES   REMARKS
ALPINE         CLOUDY    67  63  86 SW6       30.23S
ANDREWS        NOT AVBL
ARTESIA        CLEAR     64  64 100 SW7       30.10F
BIG SPRING     PTCLDY    73  67  82 SE10      30.11F
CARLSBAD       PTCLDY    64  63  96 E6        30.08F
DRYDEN           N/A     75  69  81 SE8       30.06F
FORT STOCKTON  CLOUDY    71  65  81 S9        30.07F
GUAD PASS      CLOUDY    69  55  60 CALM      30.22F
HOBBS          PTCLDY    63  63 100 E5        30.13S
MARFA          CLOUDY   N/A N/A N/A E3        30.21F
MIDLAND AIRPK  CLOUDY    74  64  72 SE9       30.09F
MIDLAND INTL   PTCLDY    72  65  78 SE10      30.08F
ODESSA         CLOUDY    71  65  81 SE9       30.09F
PECOS          CLOUDY    68  65  89 E6        30.04F
PRESIDIO       NOT AVBL
SEMINOLE       CLEAR     65  64  95 CALM      30.12S
SNYDER           N/A     68  64  88 SE5       30.10S
WINK           CLOUDY    70  64  81 E9        30.04F
$$
...OTHER STATIONS IN TEXAS...

CITY           SKY/WX    TMP DP  RH WIND       PRES   REMARKS
ABILENE        CLEAR     74  67  78 S8        30.08F
AMARILLO       PTCLDY    61  58  90 NE6       30.13F
AUSTIN         MOCLDY    74  74 100 SW3       30.06F
BROWNSVILLE    PTCLDY    76  75  97 CALM      30.02F
CORPUS CHRISTI MOCLDY    75  74  96 CALM      30.03F
DALLAS FTW     CLEAR     79  72  79 SW8       30.04R
DEL RIO        CLEAR     76  71  85 E8        30.03S
EL PASO        CLEAR     73  54  51 N9        30.08S
HOUSTON INT    PTCLDY    77  75  93 CALM      30.06S
LUBBOCK        CLOUDY    71  64  78 S12       30.12S
SAN ANGELO     CLEAR     75  68  78 S8        30.07F
SAN ANTONIO    MOCLDY    78  74  87 S9        30.08F
WACO           CLEAR     78  73  84 S13       30.05S
WICHITA FALLS  NOT AVBL
$$
...OTHER LOCATIONS IN NEW MEXICO...

CITY           SKY/WX    TMP DP  RH WIND       PRES   REMARKS
ALAMAGORDO     CLOUDY    66  54  63 N5        30.13F
ALBUQUERQUE    CLOUDY    63  49  60 N5        30.23S
CANNON AFB     CLOUDY    58  55  87 E6        30.16F
CLOVIS         CLEAR     57  52  82 CALM      30.16F
HOLLOMAN AFB   CLOUDY    66  55  68 NE3       30.10F
ROSWELL        CLOUDY    65  62  90 N7        30.11F
RUIDOSO          N/A     55  46  71 SW7       30.30F
SANTA FE       MOCLDY    57  48  72 CALM      30.28S
TRUTH OR CONSE PTCLDY    64  50  60 NW7       30.17R
TUCUMCARI      CLOUDY    60  58  92 NW7       30.17S
$$

USA.gov is the U.S. government's official web portal to all federal, state and local government web resources and services.